Regional Weather Roundup
Issued by NWS

Home | Current Version | Previous Version | Text Only | Print | Product List | Glossary Off
Versions: 1 2 3 4 5 6 7 8 9 10 11 12 13 14 15 16 17 18 19 20 21 22 23 24 25 26 27 28 29 30 31 32 33 34 35 36 37 38 39 40 41 42 43 44 45 46 47 48 49 50

000
ASUS43 KLSX 200859
RWRMO

WEATHER SUMMARY FOR MISSOURI
NATIONAL WEATHER SERVICE SPRINGFIELD MO
400 AM CDT MON OCT 20 2014

NOTE: "FAIR" INDICATES FEW OR NO CLOUDS BELOW 12,000 FEET WITH NO
       SIGNIFICANT WEATHER AND/OR OBSTRUCTIONS TO VISIBILITY.
       CURRENT SKY AND/OR WEATHER CONDITIONS ARE NOT AVAILABLE FOR
       CHILLICOTHE AND FARMINGTON.

MOZ001>031-035>038-043-044-053-054-201000-
...NORTHERN AND WESTERN MISSOURI...

CITY           SKY/WX    TMP DP  RH WIND       PRES   REMARKS
KANSAS CTY INT CLEAR     52  50  93 SW8       29.99F
KANSAS C DTWN  CLEAR     55  50  83 CALM      29.99F
LEE`S SUMMIT   CLEAR     54  51  90 SW7       30.00F
ST JOSEPH      CLEAR     44  42  93 CALM      29.99F
CHILLICOTHE      N/A     54  49  83 CALM      29.97F
KIRKSVILLE     CLEAR     54  50  86 W8        29.95S

$$
MOZ066>068-077>081-088>096-101>105-201000-
...SOUTHWEST MISSOURI...

CITY           SKY/WX    TMP DP  RH WIND       PRES   REMARKS
SPRINGFIELD    CLOUDY    54  50  86 S6        30.03F
JOPLIN         CLOUDY    58  53  84 SW9       30.04F

$$
MOZ032>034-039>042-045>050-055>058-069>072-201000-
...CENTRAL MISSOURI...

CITY           SKY/WX    TMP DP  RH WIND       PRES   REMARKS
COLUMBIA       CLEAR     50  48  93 SW6       29.99F
JEFFERSON CITY CLEAR     50  47  89 CALM      30.00F
ROLLA          CLEAR     50  45  83 SW9       30.00F
SEDALIA        PTCLDY    54  50  86 SW7       30.00F
OSAGE BEACH    PTCLDY    48  45  87 CALM      30.01F

$$
MOZ051-052-059>065-201000-
...EAST CENTRAL MISSOURI...

CITY           SKY/WX    TMP DP  RH WIND       PRES   REMARKS
ST LOUIS INTL  MOCLDY    57  47  69 SW6       29.98F
SPIRIT OF STL  MOCLDY    56  47  71 SW7       29.98F
ST CHARLES     PTCLDY    53  47  79 SW3       29.97F

$$
MOZ072>076-082>087-097>100-106>115-201000-
...SOUTH CENTRAL AND SOUTHEAST MISSOURI...

CITY           SKY/WX    TMP DP  RH WIND       PRES   REMARKS
CAPE GIRARDEAU MOCLDY    48  46  93 CALM      30.05F
FARMINGTON     PTCLDY    52  46  82 S6        30.03F
POPLAR BLUFF   PTCLDY    49  45  86 CALM      30.05S
WEST PLAINS    CLOUDY    53  47  79 SW5       30.05F

$$


USA.gov is the U.S. government's official web portal to all federal, state and local government web resources and services.